This is the latest recevied weather packets stored in our database for station/object I1SXT-13. If no packets are shown the sender has not sent any weather packets the latest 10 day(s).
| Time | Temp. | Humidity | Pressure | Rain* | Wind** | Luminosity | Snow |
|---|---|---|---|---|---|---|---|
| 1778275168 | 17.78° C | 64% | 1017.3 hPa | 0 mm | - | - | - |
| 1778274864 | 17.78° C | 64% | 1016.2 hPa | 0 mm | - | - | - |
| 1778274567 | 17.78° C | 63% | 1016.8 hPa | 0 mm | - | - | - |
| 1778274263 | 17.78° C | 64% | 1016.3 hPa | 0 mm | - | - | - |
| 1778273966 | 17.78° C | 63% | 1016.8 hPa | 0 mm | - | - | - |
| 1778273669 | 17.78° C | 64% | 1016.5 hPa | 0 mm | - | - | - |
| 1778273365 | 18.33° C | 63% | 1016.9 hPa | 0 mm | - | - | - |
| 1778273068 | 18.33° C | 63% | 1016.7 hPa | 0 mm | - | - | - |
| 1778272764 | 18.33° C | 62% | 1016.5 hPa | 0 mm | - | - | - |
| 1778272467 | 18.33° C | 62% | 1016.7 hPa | 0 mm | - | - | - |
| 1778272170 | 18.33° C | 63% | 1017.1 hPa | 0 mm | - | - | - |
| 1778271866 | 18.33° C | 63% | 1016.6 hPa | 0 mm | - | - | - |
| 1778271569 | 18.33° C | 62% | 1015.7 hPa | 0 mm | - | - | - |
| 1778271265 | 18.33° C | 62% | 1016.4 hPa | 0 mm | - | - | - |
| 1778270968 | 18.33° C | 62% | 1016.6 hPa | 0 mm | - | - | - |
| 1778270664 | 18.33° C | 62% | 1016.6 hPa | 0 mm | - | - | - |
| 1778270367 | 18.33° C | 61% | 1015.9 hPa | 0 mm | - | - | - |
| 1778269766 | 18.33° C | 62% | 1016.2 hPa | 0 mm | - | - | - |
| 1778269468 | 18.89° C | 62% | 1016.2 hPa | 0 mm | - | - | - |
| 1778269164 | 18.89° C | 60% | 1016.3 hPa | 0 mm | - | - | - |
| 1778268867 | 18.89° C | 59% | 1016.2 hPa | 0 mm | - | - | - |
| 1778268563 | 18.89° C | 61% | 1016.3 hPa | 0 mm | - | - | - |
| 1778267665 | 18.89° C | 60% | 1016.1 hPa | 0 mm | - | - | - |
| 1778267368 | 18.89° C | 61% | 1016 hPa | 0 mm | - | - | - |
| 1778267064 | 18.33° C | 64% | 1015.5 hPa | 0 mm | - | - | - |
* Rain since midnight (hover to see other rain measurements)
** Current wind speed in m/s (hover to see current wind gust speed)